[[{"header":{"parameterUnit":"m.s-1","parameterCategory":1,"la1":30.2991,"la2":30.254,"lo1":-89.0895,"lo2":-89.0444,"dy":0.0017,"dx":0.0017,"nx":28,"ny":28,"refTime":"2025-01-11T03:00:00:Z","depth":0,"parameterNumber":2,"parameterNumberName":"U-component_of_WINDS"},"data":[0,0,0,0,0,0,0,0,0,0,0,0,0,0,0,0,0,0,0,0,0,0,0,0,0,0,0,0,0,0,0,0,0,0,0,0,0,0,0,0,0,0,0,0,0,0,0,0,0,0,0,0,0,0,0,0,0,0,1.5929,1.5928,0,1.5899,1.5898,1.5898,1.5867,1.5867,1.5866,1.5866,1.5833,1.5833,1.5832,0,0,0,0,0,0,0,0,0,0,0,0,0,1.5959,1.5958,1.5929,1.5928,1.5928,1.5899,1.5898,1.5898,1.5867,1.5867,1.5866,1.5866,1.5833,1.5833,1.5832,0,0,0,0,0,0,0,0,0,0,0,0,0,1.5939,1.5958,1.5929,1.5909,1.5907,1.5899,1.5898,1.5898,1.5867,1.5867,1.5866,1.5865,1.5834,1.5833,1.5832,1.584,0,0,1.583,1.583,0,0,0,0,0,0,0,0,1.594,1.5938,1.5912,1.5911,1.5908,1.5886,1.5897,1.5878,1.5867,1.5882,1.5866,1.5865,1.5851,1.5849,1.5845,1.5839,1.5837,1.583,1.583,1.5829,1.5829,0,0,0,0,0,0,0,1.5941,1.5939,1.5917,1.5912,1.591,1.5902,1.5898,1.5893,1.5871,1.5881,1.5879,1.5876,1.585,1.5845,1.5844,1.5837,1.583,1.5829,1.5829,1.5829,1.5837,1.5837,0,0,0,0,0,0,1.5946,1.594,1.5918,1.5916,1.5923,1.5902,1.5898,1.5894,1.5871,1.5867,1.5876,1.5874,1.5847,1.5845,1.5842,1.585,1.5829,1.5829,1.5828,1.5836,1.5837,1.5838,0,0,0,0,0,0,1.5947,1.5944,1.5919,1.5928,1.5924,1.5902,1.5898,1.5894,1.5889,1.5867,1.5863,1.5876,1.5846,1.5843,1.5841,1.5849,1.5828,1.5828,1.5835,1.5836,1.5837,1.5867,0,0,0,0,0,0,1.5948,1.5945,1.5948,1.5928,1.5923,1.5919,1.5898,1.5893,1.5888,1.5885,1.5866,1.5862,1.5846,1.5843,1.5841,1.5848,1.5827,1.5835,1.5836,1.5837,1.5865,1.5868,1.5872,0,0,0,0,0,1.5949,1.5956,1.5948,1.5945,1.5927,1.5919,1.5917,1.5899,1.5889,1.5891,1.5878,1.5862,1.5849,1.5843,1.584,1.5847,1.5834,1.5836,1.5837,1.5863,1.5868,1.5871,0,0,0,0,0,0,1.5977,1.5953,1.5944,1.5945,1.5935,1.5914,1.5916,1.5904,1.5895,1.5893,1.587,1.5866,1.5867,1.5857,1.585,1.5854,1.5839,1.584,1.586,1.5864,1.5868,1.5869,1.5826,0,0,0,0,0,1.5983,1.598,1.5959,1.5963,1.5958,1.5938,1.5934,1.5922,1.5909,1.5905,1.589,1.5879,1.5872,1.5868,1.586,1.5864,1.5859,1.5867,1.5871,1.5874,1.5874,1.5876,1.5879,1.5842,1.5842,1.5842,0,0,1.5996,1.5983,1.5982,1.5968,1.5958,1.5954,1.5935,1.5931,1.5928,1.5904,1.5901,1.5891,1.5876,1.5877,1.5877,1.5869,1.5884,1.5876,1.5878,1.5877,1.5878,1.5881,1.5884,1.5843,1.5843,1.5843,0,0,1.6018,1.6008,1.6009,1.6,1.5986,1.5974,1.5974,1.5956,1.5948,1.5946,1.5927,1.5924,1.5912,1.5903,1.5896,1.5917,1.5902,1.5915,1.5932,1.5934,1.5937,1.5939,1.5946,1.5949,1.5916,1.5916,1.5916,0,1.6035,1.6029,1.6012,1.601,1.6004,1.5983,1.5985,1.5977,1.5961,1.5958,1.5949,1.5935,1.5924,1.5923,1.5928,1.5924,1.5923,1.5916,1.5938,1.594,1.5942,1.5948,1.5951,1.5918,1.5917,1.5917,1.5917,0,1.6051,1.6048,1.6051,1.6037,1.6032,1.6032,1.6014,1.6011,1.6,1.5988,1.5986,1.5972,1.5962,1.5961,1.5949,1.5958,1.5954,1.5942,1.5926,1.5947,1.5953,1.5955,1.592,1.5919,1.5919,1.5919,0,0,1.6087,1.6065,1.6067,1.606,1.6044,1.6041,1.6041,1.6031,1.6029,1.6019,1.6018,1.601,1.5999,1.5992,1.598,1.5981,1.5998,1.5969,1.5969,1.5975,1.6008,1.6016,1.6019,1.5989,1.599,1.599,1.6009,0,1.6106,1.6103,1.6088,1.609,1.6087,1.6068,1.6068,1.6058,1.6047,1.6043,1.6031,1.6025,1.6012,1.6008,1.6009,1.5996,1.6004,1.5995,1.5987,1.5987,1.599,1.6022,1.603,1.6048,1.6011,1.6011,1.6011,0,1.6126,1.6118,1.612,1.6105,1.6103,1.6103,1.6094,1.609,1.6079,1.6071,1.6064,1.605,1.6049,1.6036,1.6033,1.6027,1.6023,1.6017,1.6017,1.6014,1.6,1.6019,1.6053,1.6056,1.6015,1.6014,1.6014,0,1.6151,1.6142,1.6142,1.6137,1.612,1.612,1.6113,1.6101,1.6097,1.6089,1.6086,1.6078,1.6073,1.6067,1.6052,1.6043,1.6051,1.6036,1.6044,1.6044,1.6045,1.6045,1.6078,1.6045,1.6044,1.6044,1.6044,0,1.6172,1.6174,1.6154,1.6153,1.6155,1.6138,1.614,1.6131,1.6121,1.6119,1.6102,1.61,1.6081,1.6077,1.6065,1.6064,1.6062,1.6056,1.6052,1.6057,1.6057,1.6053,1.6051,1.6045,1.6045,1.6045,1.6045,0,1.6201,1.6187,1.6186,1.617,1.6166,1.6168,1.6154,1.6153,1.6143,1.614,1.6139,1.6122,1.6116,1.6101,1.6091,1.6083,1.6086,1.608,1.609,1.6088,1.6096,1.6095,1.6126,1.6129,1.6095,1.6096,1.6096,0,1.6214,1.6215,1.62,1.6198,1.6192,1.6188,1.6184,1.6168,1.6164,1.6153,1.6153,1.6147,1.6141,1.6133,1.612,1.6112,1.6106,1.6117,1.6104,1.6109,1.6105,1.6105,1.6105,1.612,1.612,1.612,1.6121,0,1.624,1.6234,1.6229,1.6222,1.6218,1.6211,1.6204,1.6203,1.6185,1.6182,1.6177,1.6172,1.6163,1.6157,1.6148,1.614,1.6127,1.6125,1.6126,1.613,1.6136,1.6132,1.6097,1.6124,1.6124,1.6123,1.6123,1.6123,1.6261,1.6261,1.6251,1.6246,1.6239,1.6233,1.6232,1.6222,1.6218,1.6209,1.62,1.6196,1.6186,1.6173,1.6166,1.6162,1.6155,1.6157,1.6158,1.6158,1.616,1.6138,1.6161,1.6161,1.6161,1.616,1.616,0,1.6285,1.6278,1.6274,1.6265,1.6262,1.6251,1.6243,1.6241,1.6237,1.6229,1.6224,1.6218,1.6213,1.62,1.6193,1.6192,1.6186,1.6191,1.619,1.6189,1.6167,1.6166,1.6196,1.6196,1.6196,1.6196,1.6196,1.6196,1.6298,1.6298,1.629,1.6287,1.628,1.6276,1.6272,1.6267,1.626,1.6255,1.625,1.6242,1.6232,1.6225,1.6219,1.6215,1.6213,1.622,1.6214,1.6194,1.619,1.6187,1.6186,1.622,1.622,1.6236,1.6236,1.6236]},{"header":{"parameterUnit":"m.s-1","parameterCategory":1,"la1":30.2991,"la2":30.254,"lo1":-89.0895,"lo2":-89.0444,"dy":0.0017,"dx":0.0017,"nx":28,"ny":28,"refTime":"2025-01-11T03:00:00:Z","depth":0,"parameterNumber":3,"parameterNumberName":"V-component_of_WINDS"},"data":[0,0,0,0,0,0,0,0,0,0,0,0,0,0,0,0,0,0,0,0,0,0,0,0,0,0,0,0,0,0,0,0,0,0,0,0,0,0,0,0,0,0,0,0,0,0,0,0,0,0,0,0,0,0,0,0,0,0,-4.9885,-4.9887,0,-5.0066,-5.0068,-5.007,-5.0062,-5.0059,-5.0056,-5.0054,-5.0238,-5.0245,-5.0252,0,0,0,0,0,0,0,0,0,0,0,0,0,-4.953,-4.9536,-4.9884,-4.9887,-4.9889,-5.0066,-5.0068,-5.0071,-5.0062,-5.0059,-5.0056,-5.0053,-5.0236,-5.0244,-5.0253,0,0,0,0,0,0,0,0,0,0,0,0,0,-4.9695,-4.9539,-4.9884,-4.9906,-4.991,-5.0065,-5.0068,-5.0071,-5.0063,-5.0059,-5.0055,-5.0051,-5.0233,-5.0243,-5.0254,-5.0399,0,0,-5.0288,-5.0292,0,0,0,0,0,0,0,0,-4.9685,-4.9708,-4.9901,-4.9905,-4.9909,-5.0037,-5.0011,-5.0181,-5.0064,-5.0005,-5.0054,-5.005,-5.0174,-5.019,-5.0232,-5.0408,-5.0415,-5.0289,-5.0295,-5.03,-5.0303,0,0,0,0,0,0,0,-4.9674,-4.97,-4.9956,-4.9903,-4.9909,-4.9907,-4.9926,-5.0043,-5.0109,-5.0009,-5.0009,-5.0031,-5.0176,-5.0222,-5.0236,-5.0418,-5.0288,-5.0298,-5.0305,-5.0309,-5.0722,-5.0726,0,0,0,0,0,0,-4.9658,-4.969,-4.995,-4.9962,-4.9786,-4.9916,-4.9938,-5.0,-5.0108,-5.012,-5.0034,-5.003,-5.0205,-5.0224,-5.0243,-5.042,-5.03,-5.031,-5.0316,-5.0718,-5.0723,-5.0728,0,0,0,0,0,0,-4.965,-4.9681,-4.9943,-4.9826,-4.9859,-4.9926,-4.9997,-5.0006,-5.0051,-5.0126,-5.0138,-5.0069,-5.0203,-5.0228,-5.0361,-5.0426,-5.0315,-5.0325,-5.0712,-5.0719,-5.0725,-5.0775,0,0,0,0,0,0,-4.964,-4.9679,-4.9734,-4.9827,-4.9866,-5.0058,-5.0001,-5.0012,-5.0071,-5.0067,-5.0162,-5.0174,-5.0201,-5.0344,-5.0371,-5.0439,-5.0334,-5.0707,-5.0715,-5.0723,-5.0768,-5.0782,-5.0795,0,0,0,0,0,-4.9628,-4.9741,-4.9737,-4.9769,-4.9937,-5.0062,-5.0084,-5.0114,-5.0076,-5.0133,-5.0181,-5.0171,-5.0415,-5.0358,-5.0388,-5.0461,-5.0703,-5.0713,-5.0723,-5.0761,-5.0779,-5.0794,0,0,0,0,0,0,-4.9653,-4.9753,-4.9751,-4.9897,-4.9971,-5.006,-5.0133,-5.0132,-5.0217,-5.021,-5.0243,-5.0265,-5.0398,-5.0443,-5.0378,-5.0606,-5.0554,-5.057,-5.0573,-5.059,-5.0604,-5.059,-5.0343,0,0,0,0,0,-4.9676,-4.9769,-4.9852,-4.9973,-5.001,-5.0065,-5.0121,-5.0138,-5.0215,-5.0246,-5.0304,-5.038,-5.0473,-5.0534,-5.0624,-5.0774,-5.0794,-5.0838,-5.0852,-5.0863,-5.0877,-5.096,-5.098,-5.076,-5.076,-5.076,0,0,-4.9723,-4.979,-4.9847,-4.998,-5.0039,-5.0135,-5.0092,-5.0195,-5.0266,-5.0262,-5.0391,-5.0436,-5.0523,-5.0665,-5.073,-5.0706,-5.0942,-5.0875,-5.0883,-5.0892,-5.0972,-5.0993,-5.1011,-5.0767,-5.0766,-5.0765,0,0,-4.9859,-4.9919,-5.0027,-5.0088,-5.0178,-5.0214,-5.024,-5.033,-5.036,-5.049,-5.0489,-5.0575,-5.0735,-5.0797,-5.0849,-5.101,-5.1004,-5.1038,-5.1109,-5.119,-5.1207,-5.1223,-5.128,-5.1301,-5.1052,-5.1052,-5.1052,0,-4.9907,-5.0052,-5.0082,-5.0187,-5.0246,-5.0247,-5.0356,-5.0414,-5.0529,-5.0569,-5.054,-5.0742,-5.08,-5.0957,-5.0997,-5.1039,-5.1069,-5.1028,-5.1202,-5.1218,-5.1233,-5.1288,-5.131,-5.1055,-5.1055,-5.1055,-5.1054,0,-5.0107,-5.0207,-5.0284,-5.0396,-5.0463,-5.0569,-5.0616,-5.068,-5.0691,-5.073,-5.0863,-5.0933,-5.1038,-5.1076,-5.1088,-5.1235,-5.1217,-5.1195,-5.1143,-5.1257,-5.131,-5.1331,-5.1061,-5.1059,-5.1058,-5.1057,0,0,-5.0264,-5.0392,-5.0419,-5.0471,-5.0571,-5.0649,-5.0756,-5.0859,-5.0914,-5.0993,-5.1083,-5.122,-5.12,-5.126,-5.1278,-5.1348,-5.1472,-5.1318,-5.132,-5.1344,-5.1639,-5.1655,-5.168,-5.1468,-5.1473,-5.1476,-5.1632,0,-5.0411,-5.06,-5.0631,-5.0797,-5.0891,-5.0894,-5.0986,-5.1058,-5.1097,-5.1182,-5.1225,-5.1321,-5.1288,-5.1324,-5.1394,-5.1442,-5.1531,-5.1431,-5.1553,-5.1557,-5.1532,-5.1707,-5.1725,-5.1869,-5.1653,-5.1656,-5.1659,0,-5.0608,-5.0693,-5.0869,-5.0958,-5.0998,-5.1081,-5.1178,-5.1259,-5.134,-5.1364,-5.1431,-5.1441,-5.1552,-5.1494,-5.1647,-5.1578,-5.163,-5.1661,-5.1667,-5.168,-5.1615,-5.1725,-5.1915,-5.1937,-5.1691,-5.1689,-5.1686,0,-5.0705,-5.0864,-5.099,-5.1034,-5.114,-5.1198,-5.1245,-5.1323,-5.1383,-5.1468,-5.1507,-5.1604,-5.1657,-5.1731,-5.1767,-5.1722,-5.1917,-5.1863,-5.194,-5.1939,-5.1981,-5.1978,-5.2183,-5.2014,-5.2014,-5.2013,-5.2013,0,-5.0866,-5.0974,-5.1036,-5.1113,-5.1234,-5.1268,-5.1387,-5.1432,-5.1501,-5.1587,-5.1595,-5.1676,-5.1718,-5.1805,-5.1834,-5.1956,-5.198,-5.2002,-5.2008,-5.2002,-5.1999,-5.2036,-5.2027,-5.2019,-5.2018,-5.2016,-5.2015,0,-5.0996,-5.1042,-5.1179,-5.1269,-5.1294,-5.1379,-5.1455,-5.1531,-5.1569,-5.1679,-5.1706,-5.1767,-5.187,-5.1913,-5.2039,-5.2059,-5.2199,-5.2198,-5.2172,-5.2174,-5.2249,-5.2242,-5.2486,-5.2519,-5.2327,-5.2329,-5.2331,0,-5.1096,-5.1179,-5.1278,-5.1336,-5.1385,-5.1479,-5.1541,-5.1578,-5.1642,-5.1741,-5.1804,-5.1908,-5.1992,-5.2156,-5.2212,-5.2308,-5.231,-5.2388,-5.2324,-5.2315,-5.2312,-5.2306,-5.2315,-5.24,-5.2402,-5.2404,-5.2405,0,-5.1269,-5.1287,-5.1376,-5.1474,-5.1548,-5.1626,-5.1703,-5.175,-5.1798,-5.187,-5.1976,-5.2041,-5.2171,-5.2273,-5.2373,-5.2421,-5.2422,-5.2425,-5.2448,-5.2442,-5.2424,-5.2435,-5.2205,-5.2419,-5.2417,-5.2416,-5.2416,-5.2415,-5.1387,-5.1461,-5.1543,-5.1642,-5.1703,-5.1775,-5.185,-5.1899,-5.1988,-5.2097,-5.2113,-5.2226,-5.2305,-5.244,-5.2492,-5.2581,-5.2561,-5.2594,-5.2602,-5.261,-5.2615,-5.2409,-5.2599,-5.2598,-5.2598,-5.2598,-5.2598,0,-5.1561,-5.1614,-5.1704,-5.1812,-5.189,-5.1884,-5.1968,-5.2034,-5.2134,-5.2208,-5.2291,-5.2413,-5.2512,-5.2576,-5.2676,-5.2735,-5.2738,-5.276,-5.2757,-5.2768,-5.2627,-5.2597,-5.2757,-5.2757,-5.2757,-5.2756,-5.2756,-5.2756,-5.1661,-5.1786,-5.1815,-5.1971,-5.2022,-5.2134,-5.2183,-5.2249,-5.2308,-5.2444,-5.2527,-5.2568,-5.2638,-5.2744,-5.2835,-5.2851,-5.2888,-5.2912,-5.2927,-5.2794,-5.2778,-5.2762,-5.2734,-5.2919,-5.292,-5.306,-5.3061,-5.3062]}]]